Prescott, AZ

2:22 PM MST on November 15, 2019 (GMT -0700)
Love

Weather History for KPRC - May, 2019

Change the Weather History Date:

Wednesday, May 15, 2019

  Actual Average Record
Temperature  
Mean Temperature 64 °F 61 °F  
Max Temperature 79 °F 76 °F 90 °F (1997)
Min Temperature 49 °F 47 °F 30 °F (1968)
Degree Days  
Heating Degree Days 1    
Month to date heating degree days 101  
Since 1 July heating degree days 4150  
Cooling Degree Days 0    
Month to date cooling degree days 0  
Year to date cooling degree days 1  
Growing Degree Days 14 (Base 50)    
Moisture  
Dew Point 36 °F    
Average Humidity 35    
Maximum Humidity 66    
Minimum Humidity 19    
Precipitation  
Precipitation 0.00 in 0.01 in 0.62 in (2015)
Month to date precipitation 0.81 0.22  
Year to date precipitation 6.33 4.30  
Sea Level Pressure  
Sea Level Pressure 29.83 in    
Wind  
Wind Speed 8 mph ()    
Max Wind Speed 23 mph    
Max Gust Speed 29 mph    
Visibility 10.0 miles    
Events      
T = Trace of Precipitation, MM = Missing Value Source: Averaged Metar Reports

Daily Weather History Graph

Daily Weather History Graph

Search for Another Location

Airport or City:

Astronomy

May. 15, 2019 Rise Set
Actual Time 5:26 AM MST 7:25 PM MST
Civil Twilight 4:59 AM MST 7:53 PM MST
Nautical Twilight 4:25 AM MST 8:27 PM MST
Astronomical Twilight 3:48 AM MST 9:03 PM MST
Moon 4:11 PM MST 3:41 AM MST
Length of Visible Light 14h 54m
Length of Day
13h 58m
Waxing Gibbous, 88% of the Moon is Illuminated
May 15
Waxing Gibbous
May 18
Full
May 26
Last Quarter
Jun 3
New
Jun 9
First Quarter

Hourly Weather History & Observations

Time (MST) Temp. Dew Point Humidity Pressure Visibility Wind Dir Wind Speed Gust Speed Precip Events Conditions
12:53 AM 57.0 °F 37.9 °F 49% 29.88 in 10.0 mi South 9.2 mph - N/A   Clear
1:53 AM 55.9 °F 37.9 °F 51% 29.88 in 10.0 mi South 5.8 mph - N/A   Clear
2:53 AM 55.9 °F 37.9 °F 51% 29.86 in 10.0 mi NNE 4.6 mph - N/A   Clear
3:53 AM 55.9 °F 37.9 °F 51% 29.87 in 10.0 mi South 3.5 mph - N/A   Clear
4:53 AM 50.0 °F 39.0 °F 66% 29.88 in 10.0 mi South 8.1 mph - N/A   Clear
5:53 AM 51.1 °F 39.0 °F 63% 29.89 in 10.0 mi South 5.8 mph - N/A   Clear
6:53 AM 57.0 °F 41.0 °F 55% 29.88 in 10.0 mi South 3.5 mph - N/A   Clear
7:53 AM 66.0 °F 39.9 °F 38% 29.88 in 10.0 mi South 3.5 mph - N/A   Clear
8:53 AM 72.0 °F 36.0 °F 27% 29.87 in 10.0 mi ESE 6.9 mph - N/A   Clear
9:53 AM 73.9 °F 37.0 °F 26% 29.86 in 10.0 mi South 12.7 mph 19.6 mph N/A   Scattered Clouds
10:53 AM 75.0 °F 36.0 °F 24% 29.86 in 10.0 mi SW 13.8 mph 26.5 mph N/A   Scattered Clouds
11:53 AM 77.0 °F 36.0 °F 23% 29.85 in 10.0 mi SSW 12.7 mph 21.9 mph N/A   Scattered Clouds
12:53 PM 78.1 °F 37.0 °F 23% 29.83 in 10.0 mi SSW 17.3 mph 21.9 mph N/A   Scattered Clouds
1:53 PM 78.1 °F 36.0 °F 22% 29.83 in 10.0 mi SSW 15.0 mph - N/A   Scattered Clouds
2:53 PM 78.1 °F 35.1 °F 21% 29.81 in 10.0 mi South 13.8 mph 21.9 mph N/A   Scattered Clouds
3:53 PM 77.0 °F 34.0 °F 21% 29.79 in 10.0 mi SSW 18.4 mph 23.0 mph N/A   Clear
4:53 PM 77.0 °F 32.0 °F 19% 29.80 in 10.0 mi SSW 16.1 mph 25.3 mph N/A   Clear
5:53 PM 75.0 °F 34.0 °F 22% 29.79 in 10.0 mi SW 13.8 mph 21.9 mph N/A   Clear
6:53 PM 73.0 °F 35.1 °F 25% 29.78 in 10.0 mi SSW 11.5 mph - N/A   Clear
7:53 PM 70.0 °F 36.0 °F 29% 29.77 in 10.0 mi SSW 6.9 mph - N/A   Clear
8:53 PM 63.0 °F 39.0 °F 41% 29.78 in 10.0 mi SW 4.6 mph - N/A   Clear
9:53 PM 66.9 °F 32.0 °F 27% 29.77 in 10.0 mi SSW 11.5 mph - N/A   Clear
10:53 PM 61.0 °F 35.1 °F 38% 29.76 in 10.0 mi South 6.9 mph - N/A   Clear
11:53 PM 61.0 °F 33.1 °F 35% 29.75 in 10.0 mi South 4.6 mph - N/A   Clear